When you browse on this site, cookies collect data to enhance your experience and personalize the content and advertising you see.
Visit our Privacy Policy to learn more. By continuing to use the site, you agree to this use of cookies and data.
  • In Romania
  • List of Countries
  • For 7 days
  • Water Temperature
  • Satellite Maps
  • Weather Map
  • Weather Widgets
  • user-avatar
    Login

    Hourly Weather Ahwaz

    Today, 24 March, Sunday

    Time Temperature Precipitation Wind Pressure Humidity
    00:00 +22°C° 0.1 mm 4 mps 758 mmHg 33%
    01:00 +22°C° 0 mm 4 mps 757 mmHg 32%
    02:00 +22°C° 0 mm 4 mps 757 mmHg 31%
    03:00 +22°C° 0 mm 3 mps 757 mmHg 28%
    04:00 +22°C° 0 mm 3 mps 756 mmHg 30%
    05:00 +21°C° 0 mm 3 mps 756 mmHg 32%
    06:00 +21°C° 0 mm 3 mps 756 mmHg 34%
    07:00 +22°C° 0.1 mm 4 mps 756 mmHg 33%
    08:00 +25°C° 0.1 mm 5 mps 756 mmHg 32%
    09:00 +26°C° 0.1 mm 6 mps 756 mmHg 32%
    10:00 +27°C° 0.1 mm 7 mps 756 mmHg 33%
    11:00 +28°C° 0.1 mm 7 mps 755 mmHg 35%
    12:00 +31°C° 0.1 mm 8 mps 755 mmHg 36%
    13:00 +29°C° 0 mm 8 mps 755 mmHg 37%
    14:00 +29°C° 0 mm 9 mps 754 mmHg 38%
    15:00 +29°C° 0 mm 9 mps 754 mmHg 39%
    16:00 +28°C° 0 mm 8 mps 753 mmHg 39%
    17:00 +28°C° 0 mm 8 mps 753 mmHg 39%
    18:00 +27°C° 0 mm 7 mps 753 mmHg 39%
    19:00 +26°C° 0.1 mm 8 mps 753 mmHg 43%
    20:00 +26°C° 0.1 mm 9 mps 753 mmHg 46%
    21:00 +24°C° 0.1 mm 10 mps 753 mmHg 50%
    22:00 +24°C° 0.2 mm 11 mps 753 mmHg 54%
    23:00 +24°C° 0.2 mm 12 mps 752 mmHg 59%

    Tomorrow, 25 March, Monday

    Time Temperature Precipitation Wind Pressure Humidity
    00:00 +23°C° 0.2 mm 14 mps 752 mmHg 63%
    01:00 +23°C° 0.4 mm 12 mps 752 mmHg 62%
    02:00 +23°C° 0.4 mm 11 mps 751 mmHg 61%
    03:00 +22°C° 0.4 mm 10 mps 751 mmHg 60%
    04:00 +22°C° 1 mm 10 mps 750 mmHg 62%
    05:00 +22°C° 1 mm 10 mps 750 mmHg 64%
    06:00 +22°C° 1 mm 10 mps 750 mmHg 66%
    07:00 +23°C° 0.6 mm 12 mps 751 mmHg 63%
    08:00 +24°C° 0.6 mm 14 mps 752 mmHg 60%
    09:00 +26°C° 0.6 mm 16 mps 752 mmHg 57%
    10:00 +27°C° 0 mm 15 mps 753 mmHg 54%
    11:00 +28°C° 0 mm 13 mps 753 mmHg 51%
    12:00 +29°C° 0 mm 12 mps 753 mmHg 48%
    13:00 +29°C° 0.2 mm 10 mps 753 mmHg 44%
    14:00 +31°C° 0.2 mm 9 mps 753 mmHg 41%
    15:00 +30°C° 0.2 mm 7 mps 752 mmHg 37%
    16:00 +29°C° 0.4 mm 7 mps 753 mmHg 40%
    17:00 +28°C° 0.4 mm 6 mps 753 mmHg 43%
    18:00 +27°C° 0.4 mm 5 mps 753 mmHg 46%
    19:00 +26°C° 0.9 mm 5 mps 754 mmHg 53%
    20:00 +24°C° 0.9 mm 6 mps 755 mmHg 60%
    21:00 +23°C° 0.9 mm 6 mps 755 mmHg 67%
    22:00 +23°C° 0 mm 6 mps 755 mmHg 71%
    23:00 +22°C° 0 mm 6 mps 755 mmHg 75%

    Day after tomorrow, 26 March, Tuesday

    Time Temperature Precipitation Wind Pressure Humidity
    00:00 +22°C° 0 mm 6 mps 755 mmHg 79%
    01:00 +22°C° 0.3 mm 6 mps 754 mmHg 80%
    02:00 +22°C° 0.3 mm 6 mps 754 mmHg 80%
    03:00 +21°C° 0.3 mm 6 mps 753 mmHg 81%
    04:00 +21°C° 0.6 mm 7 mps 753 mmHg 82%
    05:00 +21°C° 0.6 mm 8 mps 753 mmHg 83%
    06:00 +21°C° 0.6 mm 9 mps 752 mmHg 84%
    07:00 +23°C° 0.8 mm 11 mps 753 mmHg 76%
    08:00 +24°C° 0.8 mm 13 mps 753 mmHg 69%
    09:00 +26°C° 0.8 mm 14 mps 753 mmHg 61%
    10:00 +28°C° 0 mm 14 mps 753 mmHg 50%
    11:00 +31°C° 0 mm 14 mps 753 mmHg 38%
    12:00 +32°C° 0 mm 14 mps 753 mmHg 27%
    13:00 +31°C° 0 mm 13 mps 753 mmHg 29%
    14:00 +31°C° 0 mm 12 mps 754 mmHg 32%
    15:00 +29°C° 0 mm 11 mps 754 mmHg 34%
    16:00 +27°C° 0 mm 11 mps 755 mmHg 40%
    17:00 +23°C° 0 mm 10 mps 756 mmHg 46%
    18:00 +21°C° 0 mm 9 mps 757 mmHg 52%
    19:00 +21°C° 0 mm 7 mps 758 mmHg 52%
    20:00 +20°C° 0 mm 5 mps 759 mmHg 52%
    21:00 +20°C° 0 mm 3 mps 760 mmHg 52%
    22:00 +20°C° 0 mm 2 mps 760 mmHg 53%
    23:00 +19°C° 0 mm 2 mps 760 mmHg 53%

    27 March, Wednesday

    Time Temperature Precipitation Wind Pressure Humidity
    00:00 +19°C° 0 mm 2 mps 761 mmHg 54%
    01:00 +19°C° 0 mm 2 mps 761 mmHg 57%
    02:00 +18°C° 0 mm 2 mps 761 mmHg 61%
    03:00 +18°C° 0 mm 3 mps 761 mmHg 64%
    04:00 +18°C° 0 mm 2 mps 761 mmHg 65%
    05:00 +18°C° 0 mm 2 mps 762 mmHg 65%
    06:00 +17°C° 0 mm 2 mps 762 mmHg 66%
    07:00 +19°C° 0 mm 2 mps 763 mmHg 57%
    08:00 +20°C° 0 mm 2 mps 763 mmHg 48%
    09:00 +23°C° 0 mm 2 mps 764 mmHg 38%
    10:00 +23°C° 0 mm 2 mps 763 mmHg 35%
    11:00 +24°C° 0 mm 1 mps 763 mmHg 32%
    12:00 +25°C° 0 mm 1 mps 763 mmHg 28%
    13:00 +25°C° 0 mm 1 mps 762 mmHg 28%
    14:00 +25°C° 0 mm 1 mps 762 mmHg 27%
    15:00 +26°C° 0 mm 1 mps 761 mmHg 26%
    16:00 +25°C° 0 mm 1 mps 761 mmHg 27%
    17:00 +25°C° 0 mm 2 mps 761 mmHg 28%
    18:00 +25°C° 0 mm 2 mps 761 mmHg 29%
    19:00 +25°C° 0 mm 2 mps 762 mmHg 31%
    20:00 +24°C° 0 mm 3 mps 762 mmHg 32%
    21:00 +22°C° 0 mm 3 mps 763 mmHg 34%
    22:00 +22°C° 0 mm 3 mps 763 mmHg 35%
    23:00 +23°C° 0 mm 2 mps 763 mmHg 36%

    28 March, Thursday

    Time Temperature Precipitation Wind Pressure Humidity
    00:00 +21°C° 0 mm 2 mps 763 mmHg 37%
    01:00 +21°C° 0 mm 3 mps 762 mmHg 38%
    02:00 +20°C° 0 mm 3 mps 762 mmHg 40%
    03:00 +20°C° 0 mm 4 mps 761 mmHg 41%
    04:00 +19°C° 0 mm 3 mps 761 mmHg 42%
    05:00 +19°C° 0 mm 3 mps 762 mmHg 43%
    06:00 +19°C° 0 mm 2 mps 762 mmHg 44%
    07:00 +20°C° 0 mm 2 mps 762 mmHg 39%
    08:00 +23°C° 0 mm 1 mps 762 mmHg 35%
    09:00 +24°C° 0 mm 1 mps 763 mmHg 30%
    10:00 +25°C° 0 mm 1 mps 762 mmHg 27%
    11:00 +26°C° 0 mm 2 mps 762 mmHg 24%
    12:00 +27°C° 0 mm 2 mps 762 mmHg 21%
    13:00 +28°C° 0 mm 2 mps 762 mmHg 20%
    14:00 +28°C° 0 mm 2 mps 761 mmHg 18%
    15:00 +28°C° 0 mm 2 mps 761 mmHg 17%
    16:00 +28°C° 0 mm 2 mps 761 mmHg 18%
    17:00 +28°C° 0 mm 2 mps 761 mmHg 20%
    18:00 +27°C° 0 mm 2 mps 761 mmHg 21%
    19:00 +27°C° 0 mm 2 mps 761 mmHg 22%
    20:00 +26°C° 0 mm 3 mps 762 mmHg 23%
    21:00 +26°C° 0 mm 3 mps 762 mmHg 25%
    22:00 +25°C° 0 mm 3 mps 762 mmHg 27%
    23:00 +24°C° 0 mm 3 mps 761 mmHg 28%

    29 March, Friday

    Time Temperature Precipitation Wind Pressure Humidity
    00:00 +23°C° 0 mm 2 mps 761 mmHg 30%
    01:00 +23°C° 0 mm 2 mps 761 mmHg 31%
    02:00 +21°C° 0 mm 2 mps 761 mmHg 32%
    03:00 +21°C° 0 mm 3 mps 760 mmHg 33%
    04:00 +21°C° 0 mm 2 mps 761 mmHg 34%
    05:00 +21°C° 0 mm 1 mps 761 mmHg 35%
    06:00 +21°C° 0 mm 1 mps 761 mmHg 36%
    07:00 +23°C° 0 mm 1 mps 762 mmHg 31%
    08:00 +24°C° 0 mm 1 mps 762 mmHg 25%
    09:00 +26°C° 0 mm 2 mps 762 mmHg 20%
    10:00 +27°C° 0 mm 2 mps 762 mmHg 19%
    11:00 +28°C° 0 mm 2 mps 761 mmHg 19%
    12:00 +29°C° 0 mm 3 mps 761 mmHg 18%
    13:00 +29°C° 0 mm 3 mps 760 mmHg 18%
    14:00 +30°C° 0 mm 3 mps 760 mmHg 17%
    15:00 +30°C° 0 mm 3 mps 759 mmHg 16%
    16:00 +29°C° 0 mm 3 mps 759 mmHg 18%
    17:00 +29°C° 0 mm 3 mps 760 mmHg 19%
    18:00 +28°C° 0 mm 2 mps 760 mmHg 20%
    19:00 +28°C° 0 mm 2 mps 760 mmHg 21%
    20:00 +27°C° 0 mm 2 mps 760 mmHg 22%
    21:00 +26°C° 0 mm 2 mps 760 mmHg 24%
    22:00 +26°C° 0 mm 2 mps 760 mmHg 25%
    23:00 +25°C° 0 mm 2 mps 760 mmHg 26%
    Show more